BREEZE-KM R/B, 43754

Orbit data source: Space-Track

BREEZE-KM R/B, 43754 is space debris in LEO originally from a launch on Fri, 30 Nov 2018 UTC launched from the Plesetsk Missile And Space Complex (PKMTR). Debris objects in space refer to the collection of defunct objects orbiting the Earth. Examples of debris include non-operational satellites, rocket bodies, and fragments generated from explosions, collisions, or faulty payload assembly.

Loading next visibility...
Identifier
43754, 2018-097D
Orbit
LEO
Country
Flag of CISCIS
Related business
Manufacturer
Khrunichev
Mission
Spacecraft
Bus & Motor
BRIZ, S5.92
Mass
2,370 kg wet, 2,370 kg dry
Launch date (UTC)
2018-11-30 (7 years ago)
Launch vehicle
Unknown
Launch site
Plesetsk Missile And Space Complex (PKMTR)
Object type
Payload
Rocket body
Debris
Shape & HBR
Hex Cyl + 1 Rod, 2.0 m
Radar Cross Section
10.190 m², Large (>1 m²)

Expand to show TLE details & history
Last TLE update: 12 hours ago

TLE from 12 hours ago
0 BREEZE-KM R/B
1 43754U 18097D   25353.61082587  .00000040  00000-0  11469-3 0  9991
2 43754  82.5131 218.4103 0222430   5.8169 354.5436 12.80112901329443
Epoch: 2025-12-19T14:39Z
TLE epoch observation values (Epoch: 2025-12-19T14:39:35.355Z)
Latitude
-0.00001°
Longitude
-89.93652°
Altitude
1,172.858 km
Speed
7.347 km/s
True Right ascension
14h 33m 38s
True Declination
0° 00' 00"
Sunlit
Object was in daylight at epoch
Visualization orbit readout
Latitude
Unknown
Longitude
Unknown
Altitude
Unknown
Speed
Unknown
Apparent Right ascension
Unknown
Apparent Declination
Unknown
Sunlit
N/A
Visualization observer readout
Local Sidereal Time
01:28:54
Azimuth
Unknown
Elevation
Unknown
Doppler factor
Unknown
Orbital elements
Apogee altitude
1,509.949 km
Perigee altitude
1,166.675 km
Semi-major axis
7,716.449 km
Eccentricity
0.02224
Inclination
82.5131°
RAAN
218.4103°
Arg. of periapsis
5.8169°
True anomaly
354.29434°
Mean anomaly
354.5436°
Eccentric anomaly
354.41967°
Mean motion
3.20197 °/min
Orbital period
112.43 mins
BSTAR
0.00011469
Loading maneuver chart data...
Computing Atmospheric mass density...
Loading historical data...
Loading historical data...
Loading historical data...
Loading historical data...
Loading historical data...
Loading historical data...
Loading historical data...
Other satellites on launch #97 in the year 2018 (2018-11-30 UTC)

Documentation

Showing up to 5 results
|